Time,TemperatureF,DewpointF,PressureIn,WindDirection,WindDirectionDegrees,WindSpeedMPH,WindSpeedGustMPH,Humidity,HourlyPrecipIn,Conditions,Clouds,dailyrainin,SoftwareType,DateUTC
2015-05-25 00:00:00,67.0,35.3,29.88,ENE,68,0.0,0.4,31,0.00,,,0.00,WUHU216HW,2015-05-25 07:00:00,
2015-05-25 00:05:00,66.8,35.9,29.88,ENE,68,0.4,0.4,32,0.00,,,0.00,WUHU216HW,2015-05-25 07:05:00,
2015-05-25 00:10:00,66.6,35.7,29.87,NNE,23,1.3,1.3,32,0.00,,,0.00,WUHU216HW,2015-05-25 07:10:00,
2015-05-25 00:15:00,66.2,35.5,29.87,NE,45,0.7,1.8,32,0.00,,,0.00,WUHU216HW,2015-05-25 07:15:00,
2015-05-25 00:20:00,66.1,35.3,29.88,North,0,0.4,1.8,32,0.00,,,0.00,WUHU216HW,2015-05-25 07:20:00,
2015-05-25 00:25:00,65.9,35.1,29.88,North,0,0.0,1.1,32,0.00,,,0.00,WUHU216HW,2015-05-25 07:25:00,
2015-05-25 00:30:00,65.9,35.1,29.88,ENE,68,0.7,0.9,32,0.00,,,0.00,WUHU216HW,2015-05-25 07:30:00,
2015-05-25 00:35:00,65.5,34.1,29.88,North,0,0.9,1.6,31,0.00,,,0.00,WUHU216HW,2015-05-25 07:35:00,
2015-05-25 00:40:00,65.3,34.7,29.88,NE,45,1.3,1.6,32,0.00,,,0.00,WUHU216HW,2015-05-25 07:40:00,
2015-05-25 00:45:00,65.3,34.7,29.88,NNE,23,2.5,2.5,32,0.00,,,0.00,WUHU216HW,2015-05-25 07:45:00,
2015-05-25 00:50:00,65.2,34.5,29.88,NNE,23,2.0,2.5,32,0.00,,,0.00,WUHU216HW,2015-05-25 07:50:00,
2015-05-25 00:55:00,65.2,34.5,29.88,ENE,68,0.4,2.5,32,0.00,,,0.00,WUHU216HW,2015-05-25 07:55:00,
2015-05-25 01:00:00,65.2,34.5,29.88,NE,45,0.9,1.3,32,0.00,,,0.00,WUHU216HW,2015-05-25 08:00:00,
2015-05-25 01:05:00,65.0,34.3,29.88,North,0,0.9,2.5,32,0.00,,,0.00,WUHU216HW,2015-05-25 08:05:00,
2015-05-25 01:10:00,65.0,34.3,29.88,NNW,338,0.0,2.5,32,0.00,,,0.00,WUHU216HW,2015-05-25 08:10:00,
2015-05-25 01:15:00,65.0,34.3,29.88,NE,45,1.8,1.8,32,0.00,,,0.00,WUHU216HW,2015-05-25 08:15:00,
2015-05-25 01:20:00,64.8,34.2,29.88,NE,45,1.1,1.8,32,0.00,,,0.00,WUHU216HW,2015-05-25 08:20:00,
2015-05-25 01:25:00,64.6,34.0,29.88,NE,45,0.9,1.8,32,0.00,,,0.00,WUHU216HW,2015-05-25 08:25:00,
2015-05-25 01:30:00,64.4,33.8,29.88,NE,45,1.3,1.8,32,0.00,,,0.00,WUHU216HW,2015-05-25 08:30:00,
2015-05-25 01:35:00,64.4,33.8,29.88,NNE,23,1.8,1.8,32,0.00,,,0.00,WUHU216HW,2015-05-25 08:35:00,
2015-05-25 01:40:00,64.4,33.8,29.88,East,90,0.4,1.8,32,0.00,,,0.00,WUHU216HW,2015-05-25 08:40:00,
2015-05-25 01:45:00,64.4,33.8,29.88,ENE,68,1.1,1.8,32,0.00,,,0.00,WUHU216HW,2015-05-25 08:45:00,
2015-05-25 01:50:00,64.4,34.6,29.88,NNE,23,0.7,1.8,33,0.00,,,0.00,WUHU216HW,2015-05-25 08:50:00,
2015-05-25 01:55:00,64.3,34.4,29.88,NNW,338,0.2,1.3,33,0.00,,,0.00,WUHU216HW,2015-05-25 08:55:00,
2015-05-25 02:00:00,64.3,34.4,29.89,ENE,68,0.2,0.4,33,0.00,,,0.00,WUHU216HW,2015-05-25 09:00:00,
2015-05-25 02:05:00,64.1,34.2,29.88,ESE,113,2.2,2.2,33,0.00,,,0.00,WUHU216HW,2015-05-25 09:05:00,
2015-05-25 02:10:00,63.7,33.9,29.88,NE,45,0.9,2.2,33,0.00,,,0.00,WUHU216HW,2015-05-25 09:10:00,
2015-05-25 02:15:00,63.7,33.9,29.88,North,0,1.3,2.2,33,0.00,,,0.00,WUHU216HW,2015-05-25 09:15:00,
2015-05-25 02:20:00,63.5,34.5,29.88,NNE,23,1.1,2.0,34,0.00,,,0.00,WUHU216HW,2015-05-25 09:20:00,
2015-05-25 02:25:00,63.4,34.3,29.88,NNE,23,1.6,2.0,34,0.00,,,0.00,WUHU216HW,2015-05-25 09:25:00,
2015-05-25 02:30:00,63.4,34.3,29.88,NNE,23,1.6,2.5,34,0.00,,,0.00,WUHU216HW,2015-05-25 09:30:00,
2015-05-25 02:35:00,63.2,34.1,29.88,NNE,23,0.7,2.5,34,0.00,,,0.00,WUHU216HW,2015-05-25 09:35:00,
2015-05-25 02:40:00,63.2,34.1,29.88,North,0,1.3,2.5,34,0.00,,,0.00,WUHU216HW,2015-05-25 09:40:00,
2015-05-25 02:45:00,63.0,34.0,29.88,NNE,23,0.9,1.3,34,0.00,,,0.00,WUHU216HW,2015-05-25 09:45:00,
2015-05-25 02:50:00,62.8,34.6,29.88,NNE,23,0.7,1.1,35,0.00,,,0.00,WUHU216HW,2015-05-25 09:50:00,
2015-05-25 02:55:00,62.6,35.1,29.88,NE,45,1.1,1.1,36,0.00,,,0.00,WUHU216HW,2015-05-25 09:55:00,
2015-05-25 03:00:00,62.5,34.9,29.89,NNE,23,0.9,1.1,36,0.00,,,0.00,WUHU216HW,2015-05-25 10:00:00,
2015-05-25 03:05:00,62.3,34.7,29.88,NNE,23,0.0,1.1,36,0.00,,,0.00,WUHU216HW,2015-05-25 10:05:00,
2015-05-25 03:10:00,62.3,34.7,29.88,NE,45,0.2,1.1,36,0.00,,,0.00,WUHU216HW,2015-05-25 10:10:00,
2015-05-25 03:15:00,62.3,34.7,29.89,NE,45,0.4,1.1,36,0.00,,,0.00,WUHU216HW,2015-05-25 10:15:00,
2015-05-25 03:20:00,62.1,34.7,29.88,NNE,23,1.1,1.1,36,0.00,,,0.00,WUHU216HW,2015-05-25 10:20:00,
2015-05-25 03:25:00,62.1,35.4,29.89,NNE,23,0.7,1.1,37,0.00,,,0.00,WUHU216HW,2015-05-25 10:25:00,
2015-05-25 03:30:00,61.9,35.2,29.89,North,0,0.0,1.1,37,0.00,,,0.00,WUHU216HW,2015-05-25 10:30:00,
2015-05-25 03:35:00,61.7,35.0,29.89,North,0,0.4,0.7,37,0.00,,,0.00,WUHU216HW,2015-05-25 10:35:00,
2015-05-25 03:40:00,61.6,34.8,29.89,NNE,23,0.9,0.9,37,0.00,,,0.00,WUHU216HW,2015-05-25 10:40:00,
2015-05-25 03:50:00,61.2,34.6,29.89,NE,45,0.2,1.3,37,0.00,,,0.00,WUHU216HW,2015-05-25 10:50:00,
2015-05-25 03:55:00,61.0,35.1,29.89,NE,45,0.0,0.9,38,0.00,,,0.00,WUHU216HW,2015-05-25 10:55:00,
2015-05-25 04:00:00,61.0,35.1,29.89,NE,45,0.0,0.0,38,0.00,,,0.00,WUHU216HW,2015-05-25 11:00:00,
2015-05-25 04:05:00,60.8,34.9,29.89,NE,45,0.0,0.2,38,0.00,,,0.00,WUHU216HW,2015-05-25 11:05:00,
2015-05-25 04:10:00,60.8,35.6,29.89,NE,45,0.0,0.2,39,0.00,,,0.00,WUHU216HW,2015-05-25 11:10:00,
2015-05-25 04:15:00,60.7,35.5,29.89,NE,45,0.0,0.0,39,0.00,,,0.00,WUHU216HW,2015-05-25 11:15:00,
2015-05-25 04:20:00,60.5,35.3,29.89,NNE,23,0.0,0.0,39,0.00,,,0.00,WUHU216HW,2015-05-25 11:20:00,
2015-05-25 04:25:00,60.3,35.2,29.89,NNE,23,0.0,0.0,39,0.00,,,0.00,WUHU216HW,2015-05-25 11:25:00,
2015-05-25 04:30:00,60.1,35.7,29.89,NNE,23,0.0,0.0,40,0.00,,,0.00,WUHU216HW,2015-05-25 11:30:00,
2015-05-25 04:40:00,59.9,35.6,29.89,NE,45,0.0,0.0,40,0.00,,,0.00,WUHU216HW,2015-05-25 11:40:00,
2015-05-25 04:45:00,59.8,35.4,29.89,SE,135,0.0,0.2,40,0.00,,,0.00,WUHU216HW,2015-05-25 11:45:00,
2015-05-25 04:50:00,59.8,35.4,29.90,SE,135,0.0,0.2,40,0.00,,,0.00,WUHU216HW,2015-05-25 11:50:00,
2015-05-25 04:55:00,59.8,36.0,29.90,SE,135,0.0,0.0,41,0.00,,,0.00,WUHU216HW,2015-05-25 11:55:00,
2015-05-25 05:00:00,59.6,35.2,29.90,NNE,23,0.4,0.4,40,0.00,,,0.00,WUHU216HW,2015-05-25 12:00:00,
2015-05-25 05:05:00,59.6,35.2,29.90,NNE,23,0.0,0.4,40,0.00,,,0.00,WUHU216HW,2015-05-25 12:05:00,
2015-05-25 05:10:00,59.4,35.6,29.90,NNE,23,0.0,0.0,41,0.00,,,0.00,WUHU216HW,2015-05-25 12:10:00,
2015-05-25 05:15:00,59.4,35.6,29.90,NNE,23,0.0,0.0,41,0.00,,,0.00,WUHU216HW,2015-05-25 12:15:00,
2015-05-25 05:20:00,59.2,35.5,29.90,NNE,23,0.0,0.2,41,0.00,,,0.00,WUHU216HW,2015-05-25 12:20:00,